[[{"header":{"parameterUnit":"m.s-1","parameterCategory":1,"la1":30.2991,"la2":30.254,"lo1":-89.0895,"lo2":-89.0444,"dy":0.0017,"dx":0.0017,"nx":28,"ny":28,"refTime":"2023-09-30T21:00:00:Z","depth":0,"parameterNumber":2,"parameterNumberName":"U-component_of_WINDS"},"data":[0,0,0,0,0,0,0,0,0,0,0,0,0,0,0,0,0,0,0,0,0,0,0,0,0,0,0,0,0,0,0,0,0,0,0,0,0,0,0,0,0,0,0,0,0,0,0,0,0,0,0,0,0,0,0,0,0,0,-3.4534,-3.4534,0,-3.4528,-3.4528,-3.4528,-3.435,-3.4345,-3.4341,-3.4336,-3.4337,-3.4341,-3.4345,0,0,0,0,0,0,0,0,0,0,0,0,0,-3.4395,-3.4399,-3.4534,-3.4534,-3.4534,-3.4528,-3.4528,-3.4528,-3.4351,-3.4345,-3.434,-3.4334,-3.4336,-3.4341,-3.4346,0,0,0,0,0,0,0,0,0,0,0,0,0,-3.4429,-3.44,-3.4534,-3.4444,-3.4436,-3.4528,-3.4528,-3.4528,-3.4352,-3.4345,-3.4338,-3.4332,-3.4334,-3.434,-3.4347,-3.4526,0,0,-3.4366,-3.4369,0,0,0,0,0,0,0,0,-3.4428,-3.4435,-3.4457,-3.4451,-3.4442,-3.4432,-3.4479,-3.4528,-3.4354,-3.4384,-3.4336,-3.4328,-3.4375,-3.4377,-3.4392,-3.4526,-3.4526,-3.4367,-3.4371,-3.4374,-3.4376,0,0,0,0,0,0,0,-3.4425,-3.4434,-3.4532,-3.4458,-3.4448,-3.4406,-3.4403,-3.4488,-3.4419,-3.4381,-3.4368,-3.437,-3.4369,-3.4386,-3.4391,-3.4526,-3.4367,-3.4373,-3.4377,-3.4379,-3.4808,-3.4815,0,0,0,0,0,0,-3.4435,-3.4433,-3.4532,-3.4531,-3.4417,-3.4414,-3.4411,-3.4443,-3.4417,-3.4407,-3.4375,-3.4361,-3.4378,-3.4383,-3.439,-3.4599,-3.4374,-3.438,-3.4383,-3.48,-3.4809,-3.4817,0,0,0,0,0,0,-3.4432,-3.4445,-3.4532,-3.4479,-3.4486,-3.4424,-3.4461,-3.4446,-3.4463,-3.4413,-3.44,-3.4405,-3.4373,-3.4381,-3.4493,-3.4597,-3.4383,-3.4389,-3.4791,-3.4803,-3.4813,-3.5019,0,0,0,0,0,0,-3.4429,-3.4445,-3.4512,-3.4481,-3.449,-3.4635,-3.4467,-3.4451,-3.4474,-3.4455,-3.4438,-3.4428,-3.4368,-3.4484,-3.45,-3.4602,-3.4394,-3.4782,-3.4797,-3.481,-3.5003,-3.5036,-3.5065,0,0,0,0,0,-3.4425,-3.4571,-3.4516,-3.4529,-3.4571,-3.4641,-3.4646,-3.4572,-3.4483,-3.455,-3.4518,-3.4429,-3.4582,-3.4497,-3.4513,-3.4619,-3.4775,-3.4792,-3.4809,-3.4989,-3.503,-3.5064,0,0,0,0,0,0,-3.4617,-3.4566,-3.4504,-3.4644,-3.4648,-3.461,-3.4693,-3.4617,-3.4648,-3.463,-3.4539,-3.4537,-3.4664,-3.4652,-3.4558,-3.4792,-3.4663,-3.4684,-3.4795,-3.4833,-3.4863,-3.4865,-3.4399,0,0,0,0,0,-3.4676,-3.4735,-3.4687,-3.4815,-3.482,-3.4757,-3.4784,-3.4727,-3.4728,-3.4729,-3.4705,-3.4712,-3.4761,-3.4796,-3.4839,-3.4999,-3.4994,-3.508,-3.5111,-3.5136,-3.5157,-3.5243,-3.5281,-3.4873,-3.4873,-3.4872,0,0,-3.4798,-3.4777,-3.482,-3.4853,-3.485,-3.4915,-3.4759,-3.4834,-3.4882,-3.4741,-3.4846,-3.4829,-3.4829,-3.4968,-3.5027,-3.4962,-3.5268,-3.5158,-3.5179,-3.5185,-3.5264,-3.5303,-3.5337,-3.4884,-3.4882,-3.488,0,0,-3.5054,-3.5043,-3.5149,-3.5148,-3.5144,-3.51,-3.5126,-3.51,-3.5083,-3.5185,-3.5081,-3.5138,-3.5225,-3.523,-3.5244,-3.5502,-3.5422,-3.5518,-3.568,-3.5765,-3.5797,-3.5826,-3.592,-3.5955,-3.5538,-3.5538,-3.5538,0,-3.5207,-3.5299,-3.5214,-3.5296,-3.5315,-3.5188,-3.5296,-3.53,-3.5311,-3.5328,-3.5253,-3.536,-3.5351,-3.549,-3.5552,-3.5567,-3.5596,-3.5521,-3.5799,-3.5827,-3.5852,-3.5941,-3.5976,-3.555,-3.5549,-3.5547,-3.5546,0,-3.5488,-3.5554,-3.5641,-3.5653,-3.5681,-3.5776,-3.5707,-3.5746,-3.5686,-3.5652,-3.5759,-3.5744,-3.5782,-3.581,-3.5753,-3.5941,-3.5901,-3.5815,-3.5684,-3.5904,-3.5986,-3.6019,-3.5567,-3.5563,-3.5559,-3.5556,0,0,-3.5868,-3.583,-3.5864,-3.5868,-3.5854,-3.5904,-3.5993,-3.6028,-3.6065,-3.6076,-3.6151,-3.6227,-3.6147,-3.6163,-3.6105,-3.618,-3.6388,-3.6084,-3.6083,-3.6143,-3.6597,-3.6664,-3.6705,-3.6333,-3.6339,-3.6344,-3.6597,0,-3.6117,-3.6267,-3.6193,-3.6353,-3.6413,-3.6293,-3.6371,-3.6372,-3.6342,-3.639,-3.6357,-3.6413,-3.6302,-3.6311,-3.6379,-3.6348,-3.6478,-3.6328,-3.6405,-3.6409,-3.6411,-3.6747,-3.6818,-3.7058,-3.6629,-3.6634,-3.6638,0,-3.6428,-3.6452,-3.6617,-3.6592,-3.6614,-3.6686,-3.6713,-3.676,-3.6759,-3.6731,-3.675,-3.6675,-3.6763,-3.6631,-3.6753,-3.6653,-3.668,-3.6669,-3.6677,-3.6684,-3.6539,-3.6766,-3.7132,-3.717,-3.6687,-3.6683,-3.668,0,-3.6692,-3.6764,-3.6872,-3.6879,-3.6852,-3.6906,-3.6897,-3.6888,-3.6915,-3.6938,-3.6955,-3.699,-3.701,-3.7039,-3.6977,-3.6886,-3.7108,-3.6971,-3.7091,-3.7093,-3.7145,-3.7143,-3.7525,-3.7158,-3.7158,-3.7157,-3.7156,0,-3.6979,-3.7086,-3.699,-3.7058,-3.7174,-3.7088,-3.7207,-3.7185,-3.7179,-3.7241,-3.7139,-3.72,-3.7112,-3.7165,-3.7117,-3.7226,-3.7235,-3.7218,-3.7205,-3.7229,-3.7232,-3.7247,-3.723,-3.7167,-3.7165,-3.7163,-3.7161,0,-3.7294,-3.7234,-3.7345,-3.7309,-3.7302,-3.739,-3.736,-3.7422,-3.7384,-3.7464,-3.7478,-3.742,-3.7477,-3.7417,-3.747,-3.7437,-3.7586,-3.7546,-3.7587,-3.7576,-3.77,-3.7691,-3.8107,-3.8159,-3.7758,-3.7761,-3.7765,0,-3.7483,-3.7562,-3.7535,-3.7568,-3.7565,-3.762,-3.7646,-3.7565,-3.7597,-3.7601,-3.7663,-3.7711,-3.7746,-3.7843,-3.7807,-3.7848,-3.781,-3.7953,-3.7816,-3.7839,-3.7816,-3.7813,-3.7822,-3.7983,-3.7987,-3.7991,-3.7994,0,-3.7826,-3.7792,-3.7832,-3.7862,-3.7896,-3.7916,-3.7929,-3.7963,-3.7878,-3.7919,-3.7976,-3.8002,-3.8056,-3.8106,-3.8136,-3.8129,-3.805,-3.8037,-3.8068,-3.8095,-3.8116,-3.8109,-3.7666,-3.8029,-3.8026,-3.8023,-3.8021,-3.802,-3.8085,-3.815,-3.8141,-3.8189,-3.819,-3.8204,-3.8261,-3.8229,-3.8274,-3.831,-3.8259,-3.833,-3.8328,-3.8359,-3.8362,-3.8417,-3.8357,-3.84,-3.8412,-3.8425,-3.8444,-3.8105,-3.8422,-3.8421,-3.842,-3.8419,-3.8419,0,-3.8424,-3.8412,-3.8457,-3.8477,-3.8516,-3.8434,-3.8444,-3.8483,-3.8546,-3.8549,-3.8584,-3.865,-3.8699,-3.8666,-3.8707,-3.8758,-3.8723,-3.8772,-3.8769,-3.8769,-3.8495,-3.8465,-3.88,-3.88,-3.88,-3.88,-3.88,-3.8799,-3.8605,-3.8711,-3.8677,-3.8783,-3.877,-3.8837,-3.885,-3.8864,-3.8866,-3.8943,-3.8982,-3.8959,-3.8949,-3.8988,-3.903,-3.9019,-3.904,-3.9103,-3.908,-3.8825,-3.8788,-3.8752,-3.8725,-3.9108,-3.9108,-3.935,-3.9352,-3.9354]},{"header":{"parameterUnit":"m.s-1","parameterCategory":1,"la1":30.2991,"la2":30.254,"lo1":-89.0895,"lo2":-89.0444,"dy":0.0017,"dx":0.0017,"nx":28,"ny":28,"refTime":"2023-09-30T21:00:00:Z","depth":0,"parameterNumber":3,"parameterNumberName":"V-component_of_WINDS"},"data":[0,0,0,0,0,0,0,0,0,0,0,0,0,0,0,0,0,0,0,0,0,0,0,0,0,0,0,0,0,0,0,0,0,0,0,0,0,0,0,0,0,0,0,0,0,0,0,0,0,0,0,0,0,0,0,0,0,0,-0.4879,-0.488,0,-0.502,-0.5022,-0.5023,-0.5117,-0.5117,-0.5118,-0.5119,-0.5263,-0.5266,-0.527,0,0,0,0,0,0,0,0,0,0,0,0,0,-0.4689,-0.4692,-0.4879,-0.488,-0.4882,-0.502,-0.5022,-0.5024,-0.5117,-0.5117,-0.5118,-0.5119,-0.5262,-0.5266,-0.527,0,0,0,0,0,0,0,0,0,0,0,0,0,-0.4795,-0.4693,-0.4878,-0.4945,-0.4953,-0.5019,-0.5022,-0.5024,-0.5117,-0.5117,-0.5118,-0.5119,-0.5261,-0.5266,-0.527,-0.5282,0,0,-0.5285,-0.5288,0,0,0,0,0,0,0,0,-0.4789,-0.4802,-0.4934,-0.4941,-0.4949,-0.5052,-0.5008,-0.511,-0.5116,-0.5054,-0.5119,-0.512,-0.5192,-0.5203,-0.5227,-0.5289,-0.5295,-0.5286,-0.5289,-0.5291,-0.5292,0,0,0,0,0,0,0,-0.4781,-0.4796,-0.4935,-0.4935,-0.4945,-0.4968,-0.4984,-0.5028,-0.5116,-0.506,-0.5067,-0.5082,-0.5197,-0.5222,-0.5231,-0.5297,-0.5286,-0.529,-0.5293,-0.5295,-0.5374,-0.5373,0,0,0,0,0,0,-0.4763,-0.4789,-0.493,-0.4939,-0.487,-0.4971,-0.4989,-0.5018,-0.5116,-0.5132,-0.5081,-0.5086,-0.5213,-0.5225,-0.5237,-0.5256,-0.5291,-0.5295,-0.5298,-0.5375,-0.5374,-0.5373,0,0,0,0,0,0,-0.4759,-0.4775,-0.4924,-0.4866,-0.4887,-0.4973,-0.5005,-0.502,-0.5046,-0.5132,-0.5148,-0.5091,-0.5215,-0.523,-0.527,-0.5263,-0.5298,-0.5302,-0.5376,-0.5375,-0.5374,-0.5295,0,0,0,0,0,0,-0.4753,-0.4773,-0.4778,-0.4865,-0.489,-0.4955,-0.5005,-0.5022,-0.5054,-0.5062,-0.5146,-0.5161,-0.5216,-0.5262,-0.5275,-0.527,-0.5306,-0.5377,-0.5375,-0.5374,-0.5299,-0.5292,-0.5285,0,0,0,0,0,-0.4746,-0.4751,-0.4778,-0.4795,-0.4898,-0.4955,-0.4968,-0.5032,-0.5053,-0.5059,-0.5114,-0.5158,-0.5261,-0.5265,-0.528,-0.5277,-0.5378,-0.5376,-0.5374,-0.5302,-0.5293,-0.5286,0,0,0,0,0,0,-0.4661,-0.4764,-0.4795,-0.4828,-0.4882,-0.497,-0.498,-0.5021,-0.507,-0.5075,-0.5152,-0.517,-0.5202,-0.5244,-0.5246,-0.5293,-0.5325,-0.5326,-0.5265,-0.5257,-0.525,-0.524,-0.531,0,0,0,0,0,-0.4646,-0.4683,-0.4771,-0.4792,-0.4817,-0.4893,-0.492,-0.4965,-0.5024,-0.5047,-0.5105,-0.516,-0.5205,-0.5233,-0.528,-0.5305,-0.5325,-0.531,-0.5303,-0.5297,-0.5298,-0.5314,-0.5309,-0.5367,-0.5367,-0.5367,0,0,-0.4616,-0.4676,-0.4695,-0.4776,-0.4823,-0.486,-0.4912,-0.4949,-0.4977,-0.5053,-0.5094,-0.5138,-0.5205,-0.5238,-0.5255,-0.5273,-0.5286,-0.5295,-0.5289,-0.5293,-0.5311,-0.5306,-0.5301,-0.5366,-0.5366,-0.5366,0,0,-0.4579,-0.4629,-0.4652,-0.4697,-0.4767,-0.4818,-0.4823,-0.4905,-0.4937,-0.498,-0.5037,-0.5072,-0.5147,-0.5192,-0.5225,-0.5204,-0.5246,-0.5217,-0.5181,-0.5196,-0.5192,-0.5188,-0.5181,-0.5177,-0.5217,-0.5216,-0.5216,0,-0.4533,-0.4591,-0.4658,-0.4691,-0.4725,-0.4795,-0.4818,-0.4859,-0.494,-0.4962,-0.4981,-0.5077,-0.5127,-0.5171,-0.5165,-0.519,-0.5198,-0.5208,-0.5187,-0.5184,-0.5182,-0.5175,-0.5172,-0.5212,-0.5213,-0.5213,-0.5214,0,-0.453,-0.4569,-0.4579,-0.4656,-0.469,-0.4718,-0.4789,-0.4816,-0.4857,-0.4905,-0.4947,-0.5009,-0.5069,-0.5083,-0.5123,-0.5132,-0.5141,-0.5172,-0.5206,-0.5171,-0.5166,-0.5165,-0.5207,-0.5208,-0.5209,-0.521,0,0,-0.4446,-0.4558,-0.4561,-0.4596,-0.4678,-0.4709,-0.474,-0.4798,-0.4819,-0.4872,-0.49,-0.4962,-0.4991,-0.5028,-0.5074,-0.5087,-0.5066,-0.5117,-0.512,-0.5106,-0.508,-0.5056,-0.5053,-0.5094,-0.5094,-0.5094,-0.5075,0,-0.4423,-0.4482,-0.4542,-0.458,-0.4616,-0.4682,-0.4709,-0.4761,-0.4807,-0.4844,-0.4895,-0.4938,-0.4973,-0.4995,-0.5011,-0.5065,-0.5062,-0.5068,-0.5121,-0.5122,-0.5103,-0.505,-0.5026,-0.5005,-0.5073,-0.5073,-0.5073,0,-0.4404,-0.4453,-0.4494,-0.4571,-0.4589,-0.4612,-0.467,-0.4705,-0.4765,-0.4797,-0.4838,-0.4886,-0.4922,-0.495,-0.5,-0.5002,-0.5027,-0.5057,-0.5057,-0.5065,-0.5096,-0.5057,-0.5,-0.4997,-0.5071,-0.5071,-0.5071,0,-0.4338,-0.4415,-0.445,-0.4478,-0.4569,-0.4583,-0.4622,-0.4683,-0.4714,-0.4764,-0.4785,-0.4838,-0.4867,-0.4908,-0.4969,-0.4984,-0.5012,-0.5046,-0.504,-0.5038,-0.5044,-0.5043,-0.499,-0.5058,-0.5058,-0.5059,-0.5059,0,-0.4306,-0.4328,-0.4421,-0.4442,-0.4469,-0.4538,-0.4563,-0.4607,-0.4661,-0.4692,-0.4752,-0.478,-0.4859,-0.4896,-0.4944,-0.4977,-0.499,-0.5017,-0.503,-0.5012,-0.5009,-0.5031,-0.5034,-0.5058,-0.5058,-0.5058,-0.5058,0,-0.4238,-0.4301,-0.4343,-0.4425,-0.4446,-0.4462,-0.4533,-0.4556,-0.4604,-0.4642,-0.4655,-0.4731,-0.4777,-0.4842,-0.4909,-0.4941,-0.4968,-0.4988,-0.4947,-0.4955,-0.4946,-0.4946,-0.4905,-0.4904,-0.4972,-0.4971,-0.4971,0,-0.4214,-0.4233,-0.4317,-0.4341,-0.4378,-0.4417,-0.4448,-0.4516,-0.4546,-0.4616,-0.463,-0.4681,-0.4726,-0.4797,-0.4858,-0.4909,-0.4931,-0.4913,-0.4939,-0.492,-0.4931,-0.4929,-0.4931,-0.4907,-0.4906,-0.4905,-0.4904,0,-0.4164,-0.4194,-0.4237,-0.429,-0.4326,-0.4371,-0.4419,-0.4436,-0.4514,-0.4545,-0.4593,-0.4627,-0.4695,-0.4744,-0.4803,-0.4843,-0.4886,-0.4895,-0.4897,-0.4879,-0.4855,-0.4868,-0.4931,-0.4896,-0.4897,-0.4897,-0.4898,-0.4898,-0.4119,-0.4138,-0.42,-0.4245,-0.4288,-0.4331,-0.4356,-0.4407,-0.4448,-0.4508,-0.4546,-0.4592,-0.4651,-0.4735,-0.4772,-0.4809,-0.4827,-0.4829,-0.483,-0.4829,-0.4823,-0.4848,-0.482,-0.482,-0.4821,-0.4821,-0.4821,0,-0.4072,-0.4115,-0.4156,-0.4221,-0.4256,-0.4293,-0.4348,-0.4375,-0.4415,-0.4466,-0.4508,-0.4563,-0.4611,-0.4675,-0.4728,-0.4745,-0.4766,-0.4756,-0.4756,-0.4765,-0.4804,-0.4798,-0.4738,-0.4738,-0.4738,-0.4738,-0.4738,-0.4738,-0.4053,-0.4087,-0.4124,-0.418,-0.4223,-0.4268,-0.4296,-0.4336,-0.4378,-0.4436,-0.4476,-0.4517,-0.4574,-0.4631,-0.4676,-0.4694,-0.4711,-0.4695,-0.4719,-0.4755,-0.4762,-0.4769,-0.4764,-0.4698,-0.4698,-0.4677,-0.4676,-0.4676]}]]